{"data":{"norad_id":27869,"epoch":"2026-05-25T03:11:35.108736Z","epoch_age_seconds":63532,"freshness":"FRESH","line1":"1 27869U 03037B   26145.13304524 -.00000073  00000+0 -57848-3 0  9991","line2":"2 27869  82.4710 340.7000 0023167 100.6036 259.7656 12.45502504 34909","mean_motion":12.45502504,"eccentricity":0.0023167,"inclination_deg":82.471,"raan_deg":340.7,"arg_perigee_deg":100.6036,"mean_anomaly_deg":259.7656,"bstar":-0.00057848,"rev_number":3490,"period_min":115.61598594747,"perigee_km":1465.1506103416,"apogee_km":1501.576086055,"semimajor_km":7861.5003481983,"source":"CELESTRAK","updated_at":"2026-05-25T13:37:55.053356Z"}}